Wind_Speed
47 48 49 49 50 51 51 52 53 54 56 56 57 57 58 59 60 60 59 60 60 60 60 60 61 61 61 61 61 61 62 62 61 59 58 59 60 61 61 62 62 62 61
48 49 50 50 51 52 52 53 55 55 56 56 56 56 57 58 59 59 58 58 58 58 59 59 59 60 59 60 60 60 60 60 60 58 58 58 58 59 60 60 61 61 61
49 50 51 51 52 52 52 54 54 55 55 56 56 56 55 56 57 58 58 56 56 57 56 57 57 58 58 57 57 57 57 58 58 57 57 56 56 57 58 59 59 60 60
49 49 50 51 52 52 52 53 54 54 54 54 54 55 55 56 56 57 57 56 55 55 54 54 55 56 56 55 55 56 56 57 57 57 57 56 56 56 57 57 58 59 59
48 48 49 49 50 51 51 51 52 53 53 53 52 53 54 55 55 55 55 54 53 53 51 51 52 53 53 54 54 54 54 54 55 56 56 56 56 55 55 56 57 57 58
48 48 48 49 50 50 51 51 51 51 51 50 50 51 52 52 53 54 54 53 52 51 51 50 50 51 52 53 53 53 52 52 53 54 54 54 55 55 55 55 55 56 56
49 49 49 49 49 50 50 50 51 51 51 51 50 50 50 51 51 52 52 51 49 49 49 49 48 48 50 50 50 49 49 49 50 51 52 51 52 53 54 54 54 54 54
49 49 49 49 49 49 49 50 50 50 50 50 50 51 51 51 50 50 49 48 47 47 46 46 46 46 46 47 48 47 46 46 47 49 49 49 49 50 51 52 52 53 52
49 48 49 49 49 48 48 48 49 48 48 48 49 50 50 50 49 49 48 47 46 45 45 45 45 45 45 45 46 44 44 44 44 45 45 47 48 49 50 50 51 51 51
48 48 48 48 48 48 48 47 48 47 47 47 47 48 48 49 49 48 48 46 45 44 45 45 44 44 44 44 45 44 43 42 42 42 43 43 45 47 48 49 49 50 50
47 47 47 47 48 48 48 47 47 47 46 46 46 46 46 46 47 46 46 46 44 44 43 43 43 43 43 43 43 43 42 41 41 41 41 42 42 44 45 46 46 47 47
46 47 47 47 47 47 46 46 46 46 45 45 45 44 43 43 43 43 43 43 43 42 41 41 41 41 40 40 41 41 41 41 40 40 40 41 41 42 43 44 44 44 45
46 46 46 46 46 46 45 45 45 45 45 44 43 41 40 39 40 40 41 41 42 41 40 40 40 39 38 39 39 40 40 40 40 40 39 40 40 41 42 42 42 43 43
45 45 45 45 44 44 44 44 44 44 44 42 40 39 38 38 38 38 39 39 39 38 38 38 38 38 38 38 37 37 38 38 38 38 38 38 39 39 40 41 41 42 42
44 44 44 43 42 42 42 42 42 42 41 40 38 37 36 36 35 36 36 36 36 36 36 36 36 36 36 36 35 35 36 37 37 36 37 37 38 39 39 39 40 40 40
43 43 43 42 41 41 40 40 40 39 38 37 36 36 35 34 33 34 33 33 33 33 33 32 33 34 34 34 34 34 35 36 37 36 36 36 37 38 38 38 39 39 39
42 42 42 41 40 40 39 38 37 36 36 36 35 35 34 33 32 32 31 31 31 31 31 30 31 32 32 32 33 33 33 34 34 35 36 36 36 36 36 37 37 38 38
41 40 41 40 39 39 38 37 36 34 33 33 34 33 32 31 31 30 29 29 29 29 29 29 29 30 31 32 32 33 32 32 33 34 35 35 35 35 35 35 36 37 37
40 40 40 39 39 38 37 36 35 34 32 31 31 31 31 30 29 28 28 28 28 28 27 27 27 28 29 30 30 31 31 31 32 33 33 34 34 34 34 34 35 35 36
40 39 38 37 37 36 36 35 34 33 32 31 30 30 29 28 28 28 28 28 27 27 27 27 27 27 28 29 29 30 30 30 31 31 31 32 32 32 33 34 34 34 34
38 37 36 36 36 35 35 34 33 32 32 31 30 29 28 27 27 27 27 27 26 26 26 26 27 27 27 27 27 28 28 28 29 29 29 30 31 31 32 32 33 34 33
36 36 35 35 35 34 33 32 31 30 30 29 28 27 27 26 26 26 25 25 25 26 26 26 26 26 26 26 26 27 28 27 28 29 29 29 29 30 30 30 30 30 31
35 35 34 34 33 32 32 31 30 29 28 26 25 25 24 24 24 24 24 24 24 24 24 25 25 25 25 25 26 26 27 27 27 27 28 28 28 28 28 28 28 28 29
33 33 32 32 31 30 30 29 29 28 27 25 24 23 23 22 23 23 23 23 24 24 24 24 24 24 24 24 25 25 25 26 25 25 26 26 26 26 27 27 26 26 27
33 32 31 30 30 29 28 27 27 26 25 25 23 22 22 21 21 22 22 22 22 22 23 24 24 24 24 24 24 24 24 24 24 24 24 24 24 24 25 25 26 26 26
32 31 30 30 30 29 27 26 25 24 23 23 22 21 21 20 20 21 21 21 21 21 21 21 22 22 23 23 23 23 23 23 23 23 23 23 24 24 24 25 25 26 26
Wind_Direction
281 281 280 279 279 280 280 279 278 279 278 276 276 277 275 273 271 270 271 270 268 267 265 264 263 262 262 261 261 261 261 261 260 258 257 255 254 254 254 254 253 252 251
282 282 281 281 281 280 280 280 279 279 279 277 276 276 276 274 272 271 270 270 269 267 265 264 263 262 262 261 261 260 260 260 260 258 257 256 254 254 254 253 253 252 251
284 283 283 282 282 282 281 280 280 279 279 278 277 276 276 275 272 271 270 269 267 266 266 264 263 262 261 260 260 260 259 259 258 258 257 256 255 255 254 253 253 252 252
287 285 284 284 284 283 282 281 280 279 279 279 278 276 276 276 274 271 270 269 268 267 267 265 264 262 260 259 259 260 259 259 258 258 257 256 255 255 254 253 253 253 252
289 287 286 285 285 284 283 282 281 280 280 279 279 278 277 277 275 272 270 269 268 267 266 264 263 261 261 259 259 259 261 260 259 258 257 256 255 254 254 254 253 253 252
290 289 288 287 285 285 285 283 282 282 281 281 280 280 278 277 275 273 271 269 267 266 266 264 263 262 261 260 259 259 260 260 259 258 257 256 255 255 254 254 254 253 252
292 291 289 288 287 286 285 285 284 282 282 281 280 280 279 278 275 273 272 269 268 267 266 264 263 263 262 260 258 259 260 260 259 258 257 256 255 255 254 254 253 253 252
293 292 290 289 288 287 286 285 285 284 283 282 281 281 280 279 277 275 273 271 268 267 266 265 264 263 261 261 259 259 259 259 258 257 257 256 255 254 254 253 253 252 251
294 293 291 290 289 288 288 287 286 286 284 283 282 282 281 279 277 274 272 269 268 267 266 265 265 263 261 260 259 259 259 258 256 256 256 254 253 253 254 253 253 252 251
294 294 293 291 289 288 288 289 288 287 286 285 284 283 281 278 276 274 271 269 268 267 266 265 264 263 260 260 259 258 258 257 257 255 255 254 253 253 254 253 253 253 252
295 295 294 293 291 290 289 289 289 288 287 286 285 283 280 278 276 273 270 269 268 267 266 264 262 262 261 259 258 258 258 257 256 255 254 254 254 254 254 253 252 253 252
295 295 295 294 292 291 290 289 289 288 288 287 286 284 281 278 275 272 269 268 268 267 267 264 261 260 259 257 257 257 258 258 257 255 254 254 253 253 253 253 252 252 252
296 296 295 295 294 293 291 290 289 288 288 288 286 284 280 278 275 271 269 268 268 267 267 264 261 259 258 257 257 257 257 257 257 256 255 254 253 253 253 252 252 251 250
297 297 296 295 294 293 292 291 290 289 288 288 286 284 280 277 277 273 269 267 267 266 265 262 259 258 257 257 257 257 256 256 256 255 254 253 253 253 253 252 252 251 250
299 299 298 297 295 294 293 293 292 291 290 288 285 282 279 277 275 273 270 267 264 263 262 260 257 255 255 256 256 255 255 256 255 255 254 253 252 252 253 253 252 251 250
299 299 298 297 296 295 294 294 294 291 289 289 286 284 280 277 274 272 269 266 264 262 261 259 256 254 253 253 254 254 254 254 254 254 254 253 252 252 253 252 251 249 249
299 299 298 297 296 295 294 294 294 291 289 289 286 283 280 277 274 272 268 266 264 263 261 259 256 254 252 251 252 252 252 253 254 253 253 253 252 252 252 251 250 248 247
301 300 299 298 297 296 295 294 294 292 289 288 286 282 279 276 273 270 268 265 263 263 262 260 258 255 253 251 252 252 252 253 254 254 253 252 251 250 250 251 249 247 245
301 300 300 299 297 296 296 294 293 292 290 288 287 282 278 275 272 269 268 266 263 263 263 262 259 257 255 253 253 253 253 254 254 253 253 252 250 249 249 249 249 248 246
301 301 301 300 298 297 296 294 292 290 289 287 287 284 279 274 270 267 265 264 262 262 263 261 258 256 255 255 254 253 253 253 252 251 252 251 249 249 250 249 248 247 247
302 301 301 300 299 298 296 294 292 290 289 286 285 284 279 273 267 263 262 261 260 260 260 260 258 255 254 254 253 252 251 252 251 251 251 250 250 250 251 251 250 248 245
303 303 302 301 300 298 297 295 293 291 289 286 284 282 279 273 267 263 261 260 260 258 258 258 256 254 253 253 253 252 252 252 252 251 250 250 251 251 250 250 249 246 243
306 304 304 303 302 300 299 296 294 291 289 287 283 281 278 271 265 262 261 260 258 257 257 255 255 255 255 254 254 254 254 253 252 251 250 250 250 248 246 246 245 242 241
308 307 305 304 303 302 300 298 295 292 290 287 283 280 275 269 265 262 260 259 258 257 255 254 256 256 256 256 255 255 255 253 251 250 249 248 247 245 243 242 240 240 240
309 308 307 306 304 303 301 299 296 293 290 287 283 279 274 268 264 262 260 259 259 258 256 255 256 256 256 255 255 254 253 251 250 249 248 247 246 244 242 240 240 240 241
309 308 307 306 305 304 302 300 297 294 290 286 282 278 273 267 262 260 259 259 257 255 255 255 255 255 255 255 255 254 252 250 249 249 247 246 245 244 243 242 242 242 243
Height
5588 5585 5583 5581 5578 5576 5575 5573 5571 5569 5567 5565 5563 5561 5560 5559 5558 5557 5558 5558 5558 5559 5560 5561 5563 5564 5566 5568 5570 5572 5574 5576 5580 5587 5589 5592 5594 5597 5600 5603 5608 5612 5617
5575 5572 5570 5567 5564 5562 5560 5558 5555 5553 5550 5548 5546 5545 5543 5542 5541 5540 5540 5540 5540 5541 5542 5543 5544 5546 5548 5550 5552 5554 5556 5558 5561 5567 5571 5574 5576 5579 5582 5585 5590 5594 5599
5562 5559 5556 5553 5550 5547 5545 5542 5540 5537 5535 5532 5530 5528 5527 5525 5524 5523 5523 5523 5523 5524 5524 5525 5527 5528 5530 5532 5534 5537 5539 5541 5544 5548 5553 5556 5559 5561 5564 5568 5572 5577 5582
5549 5545 5542 5539 5536 5533 5530 5527 5524 5522 5519 5517 5515 5512 5511 5509 5507 5506 5505 5506 5506 5507 5507 5508 5510 5511 5513 5515 5518 5520 5522 5524 5527 5530 5534 5538 5542 5544 5547 5551 5556 5560 5565
5536 5532 5528 5525 5522 5519 5516 5512 5509 5507 5504 5502 5499 5497 5495 5492 5491 5489 5489 5489 5490 5491 5492 5492 5493 5495 5497 5499 5501 5504 5505 5507 5510 5513 5517 5521 5525 5528 5531 5535 5539 5543 5547
5523 5519 5515 5511 5508 5505 5501 5498 5495 5492 5489 5487 5484 5482 5479 5477 5475 5473 5472 5473 5474 5475 5476 5477 5478 5479 5481 5483 5485 5488 5490 5491 5494 5497 5500 5504 5508 5511 5515 5518 5521 5526 5532
5510 5505 5501 5498 5494 5490 5487 5483 5480 5477 5475 5472 5470 5467 5464 5462 5459 5458 5457 5457 5458 5459 5460 5461 5463 5464 5466 5468 5470 5473 5475 5476 5479 5482 5485 5488 5492 5496 5499 5502 5505 5509 5515
5496 5492 5488 5484 5480 5476 5473 5469 5466 5463 5460 5457 5455 5452 5450 5447 5444 5443 5442 5442 5443 5445 5446 5447 5448 5450 5452 5453 5456 5459 5461 5463 5465 5467 5471 5474 5476 5479 5482 5486 5489 5493 5498
5483 5478 5474 5470 5466 5462 5459 5455 5451 5448 5445 5443 5440 5438 5435 5433 5430 5429 5427 5428 5429 5431 5432 5433 5434 5436 5439 5439 5442 5445 5448 5449 5451 5453 5456 5458 5461 5464 5467 5470 5474 5478 5483
5470 5465 5460 5456 5452 5449 5445 5441 5438 5434 5431 5428 5426 5423 5421 5419 5417 5415 5414 5414 5416 5418 5420 5420 5421 5422 5424 5425 5428 5431 5434 5436 5438 5440 5442 5445 5447 5450 5453 5456 5460 5464 5468
5457 5452 5447 5443 5439 5435 5432 5428 5424 5421 5418 5415 5413 5410 5407 5405 5403 5402 5401 5401 5403 5405 5406 5408 5409 5409 5411 5413 5415 5418 5421 5423 5425 5427 5429 5432 5434 5437 5440 5443 5446 5450 5455
5445 5440 5435 5430 5426 5422 5418 5415 5411 5408 5405 5402 5399 5397 5394 5392 5390 5389 5389 5389 5390 5391 5393 5395 5396 5397 5399 5401 5403 5406 5408 5410 5412 5414 5417 5419 5422 5424 5427 5430 5433 5436 5441
5432 5427 5422 5417 5413 5409 5405 5402 5398 5395 5391 5389 5386 5384 5382 5380 5379 5378 5378 5378 5378 5379 5381 5382 5384 5385 5387 5390 5392 5394 5396 5398 5400 5402 5405 5407 5409 5412 5414 5417 5420 5424 5428
5420 5415 5410 5405 5401 5397 5393 5389 5386 5382 5379 5376 5373 5371 5370 5369 5367 5367 5366 5366 5367 5368 5370 5371 5372 5374 5376 5378 5381 5383 5385 5387 5389 5391 5393 5396 5398 5400 5402 5405 5408 5412 5416
5408 5403 5398 5394 5389 5385 5382 5377 5374 5370 5366 5364 5362 5360 5358 5358 5357 5356 5355 5356 5357 5358 5360 5361 5362 5363 5365 5367 5370 5372 5374 5376 5378 5380 5382 5384 5387 5389 5391 5394 5396 5399 5404
5397 5392 5387 5383 5378 5374 5371 5367 5362 5359 5356 5352 5350 5348 5347 5346 5346 5345 5345 5346 5346 5348 5349 5351 5352 5353 5355 5358 5360 5362 5364 5366 5368 5370 5372 5374 5376 5378 5380 5383 5385 5388 5392
5385 5380 5376 5371 5367 5363 5360 5356 5353 5350 5345 5342 5340 5338 5337 5336 5336 5336 5336 5336 5337 5338 5339 5341 5342 5344 5346 5348 5350 5352 5354 5356 5357 5359 5361 5363 5365 5368 5370 5372 5375 5378 5381
5374 5369 5365 5360 5356 5352 5348 5345 5342 5339 5337 5334 5331 5329 5328 5327 5326 5326 5326 5327 5328 5329 5330 5332 5333 5335 5337 5339 5341 5343 5344 5346 5348 5349 5351 5354 5356 5358 5360 5362 5365 5368 5371
5363 5358 5354 5349 5345 5341 5338 5334 5331 5328 5326 5324 5322 5320 5319 5318 5318 5318 5318 5319 5319 5321 5322 5323 5324 5326 5328 5330 5332 5333 5335 5337 5338 5340 5342 5344 5346 5348 5351 5353 5356 5358 5361
5352 5347 5343 5339 5335 5331 5327 5324 5321 5318 5316 5314 5312 5311 5310 5309 5309 5309 5310 5310 5311 5312 5313 5315 5316 5317 5319 5321 5323 5324 5326 5328 5330 5331 5333 5335 5337 5339 5342 5344 5346 5349 5352
5342 5337 5333 5328 5324 5321 5317 5314 5311 5308 5306 5304 5302 5301 5300 5300 5300 5301 5301 5302 5303 5304 5305 5306 5307 5309 5311 5312 5314 5316 5317 5319 5321 5323 5324 5326 5328 5330 5333 5335 5337 5340 5343
5332 5327 5323 5319 5315 5311 5308 5304 5301 5299 5297 5295 5293 5292 5291 5291 5292 5293 5293 5294 5295 5296 5297 5298 5300 5301 5303 5304 5306 5307 5309 5311 5312 5314 5316 5318 5320 5322 5324 5326 5329 5331 5334
5322 5318 5313 5309 5305 5302 5298 5295 5292 5290 5288 5286 5285 5284 5283 5283 5284 5285 5286 5287 5288 5288 5290 5291 5292 5294 5295 5296 5298 5299 5301 5302 5304 5305 5307 5309 5311 5314 5316 5318 5321 5323 5326
5313 5308 5304 5300 5296 5293 5290 5286 5284 5281 5279 5278 5277 5276 5276 5276 5277 5277 5278 5279 5280 5281 5282 5283 5285 5286 5287 5288 5290 5291 5292 5294 5295 5297 5299 5301 5303 5306 5308 5311 5314 5316 5319
5304 5300 5296 5292 5288 5285 5281 5278 5275 5273 5271 5270 5269 5269 5268 5269 5269 5270 5271 5272 5273 5274 5275 5276 5277 5279 5280 5281 5282 5283 5285 5286 5288 5290 5292 5294 5296 5299 5301 5304 5307 5310 5312
5296 5292 5288 5284 5280 5276 5273 5270 5268 5265 5264 5262 5262 5261 5261 5261 5262 5263 5264 5265 5266 5267 5268 5269 5270 5271 5272 5274 5275 5276 5277 5279 5281 5283 5285 5287 5289 5292 5294 5297 5300 5303 5306